• In United Kingdom
  • List of Countries
  • For 7 days
  • Water Temperature
  • Satellite Maps
  • Weather Map
  • Weather Widgets
  • user-avatar
    Login

    Hourly Weather Priazovskoe

    Today, 18 August, Saturday

    Time Temperature Precipitation Wind Pressure Humidity
    00:00 +28°C° 0 mm 5 mps 759 mmHg 32%
    01:00 +27°C° 0 mm 5 mps 759 mmHg 34%
    02:00 +26°C° 0 mm 5 mps 759 mmHg 36%
    03:00 +25°C° 0 mm 5 mps 759 mmHg 38%
    04:00 +25°C° 0 mm 5 mps 759 mmHg 39%
    05:00 +23°C° 0 mm 5 mps 759 mmHg 41%
    06:00 +27°C° 0 mm 6 mps 759 mmHg 39%
    07:00 +29°C° 0 mm 6 mps 760 mmHg 37%
    08:00 +32°C° 0 mm 6 mps 760 mmHg 38%
    09:00 +33°C° 0 mm 6 mps 760 mmHg 34%
    10:00 +35°C° 0 mm 6 mps 760 mmHg 30%
    11:00 +38°C° 0 mm 6 mps 760 mmHg 27%
    12:00 +36°C° 0 mm 5 mps 760 mmHg 28%
    13:00 +36°C° 0 mm 5 mps 760 mmHg 29%
    14:00 +35°C° 0 mm 5 mps 760 mmHg 30%
    15:00 +35°C° 0 mm 4 mps 760 mmHg 32%
    16:00 +34°C° 0 mm 4 mps 760 mmHg 34%
    17:00 +33°C° 0 mm 3 mps 760 mmHg 36%
    18:00 +31°C° 0 mm 3 mps 760 mmHg 38%
    19:00 +29°C° 0 mm 3 mps 760 mmHg 41%
    20:00 +28°C° 0 mm 3 mps 761 mmHg 44%
    21:00 +27°C° 0 mm 4 mps 761 mmHg 45%
    22:00 +27°C° 0 mm 5 mps 761 mmHg 45%
    23:00 +26°C° 0 mm 6 mps 761 mmHg 46%

    Tomorrow, 19 August, Sunday

    Time Temperature Precipitation Wind Pressure Humidity
    00:00 +24°C° 0 mm 6 mps 761 mmHg 46%
    01:00 +23°C° 0 mm 6 mps 761 mmHg 46%
    02:00 +23°C° 0 mm 6 mps 762 mmHg 46%
    03:00 +22°C° 0 mm 6 mps 762 mmHg 46%
    04:00 +21°C° 0 mm 6 mps 762 mmHg 47%
    05:00 +21°C° 0 mm 7 mps 762 mmHg 47%
    06:00 +22°C° 0 mm 7 mps 762 mmHg 43%
    07:00 +24°C° 0 mm 7 mps 762 mmHg 39%
    08:00 +26°C° 0 mm 7 mps 763 mmHg 35%
    09:00 +28°C° 0 mm 7 mps 763 mmHg 31%
    10:00 +29°C° 0 mm 7 mps 763 mmHg 27%
    11:00 +30°C° 0 mm 7 mps 763 mmHg 24%
    12:00 +32°C° 0 mm 7 mps 762 mmHg 22%
    13:00 +32°C° 0 mm 7 mps 762 mmHg 21%
    14:00 +33°C° 0 mm 7 mps 762 mmHg 20%
    15:00 +32°C° 0 mm 7 mps 762 mmHg 21%
    16:00 +32°C° 0 mm 6 mps 762 mmHg 22%
    17:00 +30°C° 0 mm 6 mps 762 mmHg 22%
    18:00 +28°C° 0 mm 6 mps 762 mmHg 27%
    19:00 +26°C° 0 mm 6 mps 762 mmHg 32%
    20:00 +23°C° 0 mm 5 mps 762 mmHg 36%
    21:00 +22°C° 0 mm 5 mps 762 mmHg 37%
    22:00 +21°C° 0 mm 5 mps 762 mmHg 37%
    23:00 +20°C° 0 mm 6 mps 763 mmHg 38%

    Day after tomorrow, 20 August, Monday

    Time Temperature Precipitation Wind Pressure Humidity
    00:00 +20°C° 0 mm 6 mps 762 mmHg 38%
    01:00 +19°C° 0 mm 6 mps 762 mmHg 38%
    02:00 +19°C° 0 mm 6 mps 762 mmHg 39%
    03:00 +19°C° 0 mm 6 mps 762 mmHg 41%
    04:00 +17°C° 0 mm 6 mps 762 mmHg 43%
    05:00 +17°C° 0 mm 6 mps 762 mmHg 45%
    06:00 +20°C° 0 mm 6 mps 763 mmHg 41%
    07:00 +22°C° 0 mm 6 mps 763 mmHg 37%
    08:00 +26°C° 0 mm 7 mps 763 mmHg 34%
    09:00 +27°C° 0 mm 7 mps 763 mmHg 30%
    10:00 +28°C° 0 mm 7 mps 763 mmHg 26%
    11:00 +30°C° 0 mm 7 mps 763 mmHg 23%
    12:00 +30°C° 0 mm 7 mps 762 mmHg 22%
    13:00 +32°C° 0 mm 7 mps 762 mmHg 21%
    14:00 +32°C° 0 mm 7 mps 762 mmHg 20%
    15:00 +32°C° 0 mm 6 mps 762 mmHg 20%
    16:00 +30°C° 0 mm 6 mps 761 mmHg 20%
    17:00 +30°C° 0 mm 6 mps 761 mmHg 21%
    18:00 +28°C° 0 mm 5 mps 761 mmHg 24%
    19:00 +25°C° 0 mm 5 mps 762 mmHg 28%
    20:00 +22°C° 0 mm 5 mps 762 mmHg 32%
    21:00 +22°C° 0 mm 5 mps 762 mmHg 32%
    22:00 +21°C° 0 mm 5 mps 762 mmHg 31%
    23:00 +21°C° 0 mm 5 mps 762 mmHg 31%

    21 August, Tuesday

    Time Temperature Precipitation Wind Pressure Humidity
    00:00 +20°C° 0 mm 5 mps 761 mmHg 32%
    01:00 +20°C° 0 mm 5 mps 761 mmHg 33%
    02:00 +19°C° 0 mm 5 mps 761 mmHg 33%
    03:00 +19°C° 0 mm 5 mps 761 mmHg 35%
    04:00 +19°C° 0 mm 5 mps 761 mmHg 37%
    05:00 +17°C° 0 mm 5 mps 761 mmHg 39%
    06:00 +21°C° 0 mm 5 mps 761 mmHg 36%
    07:00 +25°C° 0 mm 5 mps 762 mmHg 33%
    08:00 +27°C° 0 mm 5 mps 762 mmHg 29%
    09:00 +29°C° 0 mm 5 mps 762 mmHg 26%
    10:00 +32°C° 0 mm 5 mps 762 mmHg 23%
    11:00 +33°C° 0 mm 5 mps 761 mmHg 19%
    12:00 +33°C° 0 mm 4 mps 761 mmHg 19%
    13:00 +34°C° 0 mm 4 mps 761 mmHg 18%
    14:00 +34°C° 0 mm 4 mps 761 mmHg 18%
    15:00 +34°C° 0 mm 4 mps 761 mmHg 19%
    16:00 +33°C° 0 mm 4 mps 761 mmHg 20%
    17:00 +33°C° 0 mm 4 mps 760 mmHg 21%
    18:00 +29°C° 0 mm 3 mps 761 mmHg 24%
    19:00 +27°C° 0 mm 3 mps 761 mmHg 28%
    20:00 +24°C° 0 mm 2 mps 761 mmHg 32%
    21:00 +24°C° 0 mm 2 mps 761 mmHg 33%
    22:00 +22°C° 0 mm 3 mps 761 mmHg 33%
    23:00 +22°C° 0 mm 3 mps 761 mmHg 34%

    22 August, Wednesday

    Time Temperature Precipitation Wind Pressure Humidity
    00:00 +22°C° 0 mm 3 mps 761 mmHg 34%
    01:00 +21°C° 0 mm 3 mps 761 mmHg 35%
    02:00 +21°C° 0 mm 3 mps 761 mmHg 36%
    03:00 +21°C° 0 mm 3 mps 761 mmHg 36%
    04:00 +20°C° 0 mm 3 mps 761 mmHg 37%
    05:00 +20°C° 0 mm 3 mps 761 mmHg 38%
    06:00 +24°C° 0 mm 3 mps 762 mmHg 34%
    07:00 +26°C° 0 mm 2 mps 762 mmHg 29%
    08:00 +29°C° 0 mm 2 mps 762 mmHg 25%
    09:00 +31°C° 0 mm 2 mps 762 mmHg 22%
    10:00 +34°C° 0 mm 2 mps 762 mmHg 20%
    11:00 +35°C° 0 mm 1 mps 762 mmHg 17%
    12:00 +36°C° 0 mm 2 mps 761 mmHg 17%
    13:00 +36°C° 0 mm 2 mps 761 mmHg 17%
    14:00 +37°C° 0 mm 3 mps 761 mmHg 17%
    15:00 +36°C° 0 mm 3 mps 761 mmHg 20%
    16:00 +36°C° 0 mm 4 mps 761 mmHg 22%
    17:00 +35°C° 0 mm 4 mps 761 mmHg 24%
    18:00 +33°C° 0 mm 4 mps 761 mmHg 31%
    19:00 +30°C° 0 mm 3 mps 762 mmHg 38%
    20:00 +28°C° 0 mm 3 mps 762 mmHg 44%
    21:00 +27°C° 0 mm 3 mps 762 mmHg 48%
    22:00 +27°C° 0 mm 4 mps 762 mmHg 52%
    23:00 +26°C° 0 mm 5 mps 762 mmHg 56%

    23 August, Thursday

    Time Temperature Precipitation Wind Pressure Humidity
    00:00 +26°C° 0 mm 5 mps 762 mmHg 54%
    01:00 +24°C° 0 mm 6 mps 762 mmHg 52%
    02:00 +23°C° 0 mm 6 mps 763 mmHg 50%
    03:00 +23°C° 0 mm 6 mps 763 mmHg 50%
    04:00 +22°C° 0 mm 6 mps 763 mmHg 49%
    05:00 +22°C° 0 mm 6 mps 763 mmHg 48%
    06:00 +23°C° 0 mm 7 mps 763 mmHg 46%
    07:00 +24°C° 0 mm 7 mps 763 mmHg 43%
    08:00 +27°C° 0 mm 7 mps 763 mmHg 41%
    09:00 +28°C° 0 mm 6 mps 763 mmHg 39%
    10:00 +30°C° 0 mm 6 mps 763 mmHg 36%
    11:00 +33°C° 0 mm 6 mps 763 mmHg 34%
    12:00 +33°C° 0 mm 6 mps 762 mmHg 33%
    13:00 +34°C° 0 mm 6 mps 762 mmHg 31%
    14:00 +35°C° 0 mm 6 mps 762 mmHg 30%
    15:00 +34°C° 0 mm 6 mps 762 mmHg 31%
    16:00 +33°C° 0 mm 5 mps 762 mmHg 31%
    17:00 +33°C° 0 mm 5 mps 761 mmHg 32%
    18:00 +30°C° 0 mm 5 mps 762 mmHg 35%
    19:00 +28°C° 0 mm 5 mps 762 mmHg 38%
    20:00 +26°C° 0 mm 5 mps 762 mmHg 42%
    21:00 +26°C° 0 mm 5 mps 762 mmHg 40%
    22:00 +24°C° 0 mm 6 mps 761 mmHg 39%
    23:00 +24°C° 0 mm 7 mps 761 mmHg 38%
    Show more